Content
SEND FEEDBACK

Daily
Averages
Monthly
Summary
United States of America

PENNINGTON GAP, VIRGINIA


Home > North America > United States > Virginia
Elevation: 1442 feet     Latitude: 36 45N     Longitude: 083 03W

WEATHER
 
SELECT A DAY
Number of Records: 117,733;   Date Range: 9/21/10 - 11/21/14
 
SHARE

PRINT THIS DATA

[ ← Previous Day ]
WEATHER ALMANAC - JANUARY 23, 2013
[ Next Day → ]
[ °C ]   °F
Weather ElementAverageHighLow
Temperature28.1 °F37.4 °F (3:35 pm)23 °F (12:35 am)
Dewpoint8.8 °F21.2 °F (11:55 pm)-0.4 °F (12:35 am)
Humidity46.5 %80 % (9:55 pm)31 % (10:35 am)
Barometer30.24 in30.35 in (9:35 am)30.10 in (10:15 pm)
Wind Speed3.5 mph11.5 mph (2:35 pm)
Wind Gust16.1 mph (12:55 pm)
Weather ElementAverage
Visibility10 mi
Wind DirectionSE (134.2 °)

Weather ElementTotal
Precipitation---
Heating Degree Days34.8 (Base 65)
Averaged from 67 records on January 23, 2013
WEATHER CONDITIONS BREAKOUT
WIND DIRECTION BREAKOUT
WEATHER BY HOUR - JANUARY 23, 2013
[ °C ]   °F
Local TimeTemperatureDewpointHumidityBarometerVisibilityWind DirectionWind SpeedGust SpeedPrecipitationEventsConditions
12:35 AM23.0 °F-0.4 °F36 %30.31 in10.0 miCalmOvercast
12:55 AM23.0 °F-0.4 °F36 %30.30 in10.0 miCalmOvercast
1:15 AM23.0 °F-0.4 °F36 %30.31 in10.0 miWest (280°)4.6 mphOvercast
1:35 AM23.0 °F-0.4 °F36 %30.31 in10.0 miWest (260°)3.5 mphOvercast
1:55 AM23.0 °F-0.4 °F36 %30.32 in10.0 miWest (260°)5.8 mphOvercast
2:15 AM23.0 °F-0.4 °F36 %30.32 in10.0 miWest (260°)3.5 mphOvercast
2:55 AM23.0 °F-0.4 °F36 %30.32 in10.0 miWNW (290°)4.6 mphOvercast
3:15 AM23.0 °F-0.4 °F36 %30.32 in10.0 miCalmOvercast
3:35 AM23.0 °F-0.4 °F36 %30.33 in10.0 miWNW (300°)4.6 mphOvercast
3:55 AM23.0 °F-0.4 °F36 %30.33 in10.0 miWest (280°)4.6 mphOvercast
4:55 AM23.0 °F-0.4 °F36 %30.32 in10.0 miWest (260°)4.6 mphOvercast
5:15 AM23.0 °F-0.4 °F36 %30.31 in10.0 miWest (260°)3.5 mphOvercast
5:35 AM23.0 °F-0.4 °F36 %30.32 in10.0 miWest (260°)5.8 mphOvercast
5:55 AM23.0 °F-0.4 °F36 %30.32 in10.0 miWest (280°)4.6 mphOvercast
6:15 AM23.0 °F-0.4 °F36 %30.33 in10.0 miWest (270°)4.6 mphOvercast
6:35 AM23.0 °F-0.4 °F36 %30.33 in10.0 miCalmOvercast
6:55 AM23.0 °F1.4 °F39 %30.33 in10.0 miCalmOvercast
7:15 AM23.0 °F1.4 °F39 %30.33 in10.0 miCalmOvercast
7:35 AM23.0 °F1.4 °F39 %30.33 in10.0 miCalmOvercast
7:55 AM23.0 °F1.4 °F39 %30.33 in10.0 miCalmOvercast
8:15 AM23.0 °F1.4 °F39 %30.33 in10.0 miCalmOvercast
8:55 AM24.8 °F-0.4 °F34 %30.33 in10.0 miCalmOvercast
9:15 AM24.8 °F-0.4 °F34 %30.34 in10.0 miSSW (210°)4.6 mphMostly Cloudy
9:35 AM24.8 °F-0.4 °F34 %30.35 in10.0 miSSW (210°)5.8 mphMostly Cloudy
9:55 AM26.6 °F1.4 °F34 %30.35 in10.0 miCalmPartly Cloudy
10:15 AM26.6 °F1.4 °F34 %30.35 in10.0 miWSW (250°)5.8 mphClear
10:35 AM28.4 °F1.4 °F31 %30.35 in10.0 miSouth (190°)6.9 mphClear
10:55 AM28.4 °F5.0 °F37 %30.35 in10.0 miWest (280°)6.9 mphClear
11:15 AM28.4 °F5.0 °F37 %30.34 in10.0 miSW (230°)4.6 mphClear
11:35 AM30.2 °F5.0 °F34 %30.33 in10.0 miCalmClear
11:55 AM32.0 °F6.8 °F35 %30.31 in10.0 miWest (270°)3.5 mphClear
12:15 PM32.0 °F8.6 °F38 %30.29 in10.0 miWSW (240°)6.9 mphClear
12:35 PM32.0 °F8.6 °F38 %30.28 in10.0 miWSW (250°)8.1 mphClear
12:55 PM32.0 °F8.6 °F38 %30.26 in10.0 miWest (270°)9.2 mph16.1 mphClear
1:15 PM32.0 °F10.4 °F41 %30.25 in10.0 miSW (220°)9.2 mphMostly Cloudy
1:35 PM32.0 °F10.4 °F41 %30.25 in10.0 miSW (230°)8.1 mphMostly Cloudy
1:55 PM33.8 °F10.4 °F38 %30.23 in10.0 miSW (230°)10.4 mphOvercast
2:15 PM33.8 °F10.4 °F38 %30.22 in10.0 miWSW (250°)6.9 mphOvercast
2:35 PM35.6 °F12.2 °F38 %30.21 in10.0 miSW (230°)11.5 mphMostly Cloudy
2:55 PM35.6 °F14.0 °F41 %30.20 in10.0 miWSW (250°)8.1 mphClear
3:15 PM35.6 °F14.0 °F41 %30.20 in10.0 miCalmClear
3:35 PM37.4 °F14.0 °F38 %30.20 in10.0 miWSW (240°)8.1 mphClear
3:55 PM37.4 °F14.0 °F38 %30.18 in10.0 miWSW (250°)9.2 mphClear
4:15 PM37.4 °F14.0 °F38 %30.17 in10.0 miWSW (240°)8.1 mphClear
4:35 PM37.4 °F15.8 °F41 %30.17 in10.0 miWSW (240°)9.2 mphClear
4:55 PM37.4 °F15.8 °F41 %30.16 in10.0 miWSW (240°)9.2 mphClear
5:15 PM37.4 °F15.8 °F41 %30.15 in10.0 miWSW (240°)8.1 mphClear
5:35 PM37.4 °F15.8 °F41 %30.15 in10.0 miWSW (240°)5.8 mphClear
5:55 PM35.6 °F17.6 °F48 %30.15 in10.0 miSW (230°)4.6 mphClear
6:15 PM33.8 °F17.6 °F52 %30.14 in10.0 miCalmClear
6:35 PM32.0 °F17.6 °F55 %30.14 in10.0 miCalm
6:55 PM32.0 °F19.4 °F60 %30.13 in10.0 miCalm
7:15 PM30.2 °F17.6 °F60 %30.13 in10.0 miCalmPartly Cloudy
7:35 PM30.2 °F17.6 °F60 %30.12 in10.0 miCalmScattered Clouds
7:55 PM28.4 °F17.6 °F64 %30.13 in10.0 miCalmMostly Cloudy
8:15 PM26.6 °F19.4 °F74 %30.12 in10.0 miCalmMostly Cloudy
8:35 PM26.6 °F19.4 °F74 %30.12 in10.0 miCalmMostly Cloudy
8:55 PM24.8 °F17.6 °F74 %30.12 in10.0 miCalmOvercast
9:15 PM24.8 °F17.6 °F74 %30.11 in10.0 miCalmOvercast
9:35 PM24.8 °F17.6 °F74 %30.11 in10.0 miCalmOvercast
9:55 PM24.8 °F19.4 °F80 %30.11 in10.0 miCalmOvercast
10:15 PM24.8 °F19.4 °F80 %30.10 in10.0 miCalmOvercast
10:35 PM24.8 °F19.4 °F80 %30.11 in10.0 miCalmOvercast
10:55 PM24.8 °F19.4 °F80 %30.11 in10.0 miCalmOvercast
11:15 PM24.8 °F19.4 °F80 %30.11 in10.0 miCalmOvercast
11:35 PM24.8 °F19.4 °F80 %30.11 in10.0 miCalmOvercast
11:55 PM26.6 °F21.2 °F80 %30.10 in10.0 miCalmOvercast
Hourly data recorded from K0VG, located miles away from Pennington Gap, Virginia







STORIES FROM OUR PARTNERS